| time (UTC) | temp F | wind direction | speed knots | gust knots | rain 1hr in | rain 24hr in | rain mn in | humidity % | barometer mb |
| 20260904211508 | 70 | 247 | 1.7 | 5.2 | 0.00 | 0.00 | 0.00 | 43 | 1012.8 |
| 20260904210007 | 68 | 73 | 0.0 | 7.8 | 0.00 | 0.00 | 0.00 | 44 | 1012.7 |
| 20260904204505 | 70 | 333 | 0.9 | 3.5 | 0.00 | 0.00 | 0.00 | 44 | 1012.7 |
| 20260904203002 | 69 | 153 | 0.9 | 2.6 | 0.00 | 0.00 | 0.00 | 48 | 1012.7 |
| 20260904201604 | 67 | 246 | 0.9 | 2.6 | 0.00 | 0.00 | 0.00 | 52 | 1012.8 |
| 20260904200100 | 67 | 198 | 0.9 | 3.5 | 0.00 | 0.00 | 0.00 | 53 | 1012.7 |
| 20260904194602 | 65 | 142 | 0.0 | 3.5 | 0.00 | 0.00 | 0.00 | 57 | 1012.8 |
| 20260904193055 | 65 | 182 | 0.9 | 3.5 | 0.00 | 0.00 | 0.00 | 56 | 1012.9 |
| 20260904191553 | 65 | 265 | 0.0 | 3.5 | 0.00 | 0.00 | 0.00 | 57 | 1012.9 |
| 20260904190051 | 64 | 275 | 0.0 | 2.6 | 0.00 | 0.00 | 0.00 | 57 | 1012.9 |
| 20260904184601 | 63 | 288 | 0.9 | 2.6 | 0.00 | 0.00 | 0.00 | 59 | 1012.8 |
| 20260904183047 | 62 | 155 | 0.0 | 1.7 | 0.00 | 0.00 | 0.00 | 62 | 1013.0 |
| 20260904181547 | 63 | 13 | 0.0 | 3.5 | 0.00 | 0.00 | 0.00 | 61 | 1012.8 |
| 20260904180058 | 62 | 165 | 0.0 | 1.7 | 0.00 | 0.00 | 0.00 | 63 | 1012.8 |
| 20260904174542 | 61 | 202 | 0.9 | 1.7 | 0.00 | 0.00 | 0.00 | 65 | 1012.9 |
| 20260904173045 | 60 | 241 | 0.0 | 1.7 | 0.00 | 0.00 | 0.00 | 66 | 1013.1 |
| 20260904171543 | 60 | 271 | 0.9 | 6.1 | 0.00 | 0.00 | 0.00 | 66 | 1013.1 |
| 20260904170038 | 61 | 270 | 0.9 | 5.2 | 0.00 | 0.00 | 0.00 | 65 | 1012.9 |
| 20260904164532 | 60 | 291 | 0.0 | 2.6 | 0.00 | 0.00 | 0.00 | 66 | 1012.8 |
| 20260904163030 | 59 | 328 | 0.9 | 4.3 | 0.00 | 0.00 | 0.00 | 67 | 1012.9 |
| 20260904161526 | 58 | 5 | 0.9 | 4.3 | 0.00 | 0.00 | 0.00 | 67 | 1012.9 |
| 20260904160035 | 58 | 271 | 0.9 | 4.3 | 0.00 | 0.00 | 0.00 | 67 | 1012.7 |
| 20260904154518 | 57 | 258 | 0.0 | 2.6 | 0.00 | 0.00 | 0.00 | 68 | 1012.7 |
| 20260904153014 | 55 | 257 | 0.0 | 0.9 | 0.00 | 0.00 | 0.00 | 70 | 1012.5 |
| 20260904151515 | 55 | 251 | 0.0 | 1.7 | 0.00 | 0.00 | 0.00 | 76 | 1012.4 |
| 20260904150013 | 54 | 250 | 0.0 | 2.6 | 0.00 | 0.00 | 0.00 | 81 | 1012.3 |
| 20260904144608 | 53 | 198 | 0.0 | 0.0 | 0.00 | 0.00 | 0.00 | 81 | 1012.2 |
| 20260904143010 | 52 | 198 | 0.0 | 0.0 | 0.00 | 0.00 | 0.00 | 80 | 1012.1 |
| 20260904141503 | 51 | 198 | 0.0 | 0.0 | 0.00 | 0.00 | 0.00 | 78 | 1011.9 |
| 20260904140002 | 51 | 198 | 0.0 | 0.0 | 0.00 | 0.01 | 0.00 | 78 | 1011.9 |
| 20260904134600 | 51 | 198 | 0.0 | 0.0 | 0.00 | 0.01 | 0.00 | 78 | 1011.6 |
| 20260904133057 | 51 | 198 | 0.0 | 0.0 | 0.00 | 0.01 | 0.00 | 77 | 1011.3 |
| 20260904131629 | 51 | 198 | 0.0 | 0.0 | 0.00 | 0.01 | 0.00 | 77 | 1011.0 |
| 20260904130054 | 51 | 198 | 0.0 | 0.0 | 0.00 | 0.01 | 0.00 | 76 | 1010.9 |
| 20260904124553 | 51 | 198 | 0.0 | 0.0 | 0.00 | 0.01 | 0.00 | 76 | 1010.9 |
| 20260904123106 | 51 | 198 | 0.0 | 0.9 | 0.00 | 0.01 | 0.00 | 75 | 1011.0 |
| 20260904121551 | 51 | 198 | 0.0 | 0.0 | 0.00 | 0.01 | 0.00 | 73 | 1010.8 |
| 20260904120049 | 51 | 198 | 0.0 | 0.9 | 0.00 | 0.01 | 0.00 | 72 | 1010.8 |
| 20260904114547 | 51 | 198 | 0.0 | 0.0 | 0.00 | 0.02 | 0.00 | 71 | 1010.6 |
| 20260904113046 | 51 | 198 | 0.0 | 0.0 | 0.00 | 0.02 | 0.00 | 70 | 1010.6 |
| 20260904111552 | 51 | 198 | 0.0 | 0.0 | 0.00 | 0.02 | 0.00 | 69 | 1010.6 |
| 20260904110045 | 52 | 198 | 0.0 | 0.0 | 0.00 | 0.02 | 0.00 | 69 | 1010.7 |
| 20260904104540 | 52 | 198 | 0.0 | 0.0 | 0.00 | 0.04 | 0.00 | 69 | 1010.5 |
| 20260904103042 | 52 | 198 | 0.0 | 0.0 | 0.00 | 0.04 | 0.00 | 68 | 1010.4 |
| 20260904101544 | 52 | 198 | 0.0 | 0.0 | 0.00 | 0.04 | 0.00 | 69 | 1010.2 |
| 20260904100036 | 53 | 198 | 0.0 | 0.9 | 0.00 | 0.04 | 0.00 | 68 | 1010.2 |
| 20260904094538 | 53 | 198 | 0.0 | 0.0 | 0.00 | 0.04 | 0.00 | 68 | 1010.2 |
| 20260904093035 | 53 | 198 | 0.0 | 0.0 | 0.00 | 0.04 | 0.00 | 68 | 1010.1 |
| 20260904091535 | 53 | 199 | 0.0 | 0.0 | 0.00 | 0.04 | 0.00 | 67 | 1010.0 |
| 20260904090033 | 53 | 199 | 0.0 | 0.0 | 0.00 | 0.04 | 0.00 | 68 | 1010.3 |
| 20260904084531 | 53 | 199 | 0.0 | 0.0 | 0.00 | 0.04 | 0.00 | 68 | 1010.4 |
| 20260904083029 | 53 | 199 | 0.0 | 0.0 | 0.00 | 0.04 | 0.00 | 68 | 1010.5 |
| 20260904081525 | 53 | 198 | 0.0 | 0.0 | 0.00 | 0.04 | 0.00 | 68 | 1010.6 |
| 20260904080021 | 53 | 198 | 0.0 | 0.0 | 0.00 | 0.04 | 0.00 | 68 | 1010.5 |
| 20260904074521 | 53 | 198 | 0.0 | 0.0 | 0.00 | 0.04 | 0.00 | 68 | 1010.5 |
| 20260904073016 | 53 | 198 | 0.0 | 0.0 | 0.00 | 0.04 | 0.00 | 68 | 1010.4 |
| 20260904071527 | 53 | 198 | 0.0 | 0.0 | 0.00 | 0.04 | 0.00 | 68 | 1010.2 |
| 20260904070004 | 53 | 198 | 0.0 | 0.0 | 0.00 | 0.04 | 0.04 | 68 | 1010.2 |
| 20260904064502 | 53 | 198 | 0.0 | 0.0 | 0.00 | 0.04 | 0.04 | 68 | 1010.2 |
| 20260904063002 | 53 | 198 | 0.0 | 0.0 | 0.00 | 0.04 | 0.04 | 68 | 1010.1 |
| 20260904061603 | 53 | 198 | 0.0 | 0.0 | 0.00 | 0.04 | 0.04 | 68 | 1010.0 |
| 20260904061502 | 53 | 198 | 0.0 | 0.0 | 0.00 | 0.04 | 0.04 | 68 | 1009.9 |
| 20260904060113 | 53 | 198 | 0.0 | 0.0 | 0.00 | 0.04 | 0.04 | 67 | 1010.0 |
| 20260904054601 | 54 | 198 | 0.0 | 0.0 | 0.00 | 0.04 | 0.04 | 66 | 1009.9 |
| 20260904053057 | 55 | 198 | 0.0 | 0.0 | 0.00 | 0.04 | 0.04 | 65 | 1009.9 |
| 20260904051557 | 56 | 198 | 0.0 | 0.0 | 0.00 | 0.04 | 0.04 | 64 | 1010.1 |
| 20260904050055 | 57 | 198 | 0.0 | 1.7 | 0.00 | 0.04 | 0.04 | 62 | 1009.9 |
| 20260904044558 | 56 | 198 | 0.9 | 3.5 | 0.00 | 0.04 | 0.04 | 63 | 1010.1 |
| 20260904043054 | 56 | 202 | 0.0 | 0.9 | 0.00 | 0.04 | 0.04 | 64 | 1010.0 |
| 20260904041553 | 57 | 202 | 0.0 | 0.9 | 0.00 | 0.04 | 0.04 | 63 | 1010.0 |
| 20260904040053 | 57 | 202 | 0.0 | 3.5 | 0.00 | 0.04 | 0.04 | 62 | 1009.9 |
| 20260904034600 | 57 | 150 | 0.0 | 0.9 | 0.00 | 0.04 | 0.04 | 61 | 1009.8 |
| 20260904033048 | 58 | 173 | 0.0 | 0.0 | 0.00 | 0.04 | 0.04 | 59 | 1009.4 |
| 20260904031548 | 59 | 173 | 0.0 | 0.0 | 0.00 | 0.04 | 0.04 | 57 | 1009.2 |
| 20260904030048 | 60 | 173 | 0.0 | 2.6 | 0.00 | 0.04 | 0.04 | 56 | 1009.2 |
| 20260904024547 | 61 | 182 | 0.0 | 0.9 | 0.00 | 0.04 | 0.04 | 55 | 1009.1 |
| 20260904023045 | 62 | 182 | 0.0 | 0.9 | 0.00 | 0.04 | 0.04 | 54 | 1008.9 |
| 20260904021548 | 62 | 182 | 0.9 | 2.6 | 0.00 | 0.04 | 0.04 | 52 | 1008.8 |
| 20260904020045 | 63 | 209 | 0.0 | 2.6 | 0.00 | 0.04 | 0.04 | 52 | 1008.8 |
| 20260904014547 | 63 | 184 | 0.9 | 3.5 | 0.00 | 0.04 | 0.04 | 52 | 1008.8 |
| 20260904013043 | 63 | 222 | 0.0 | 2.6 | 0.00 | 0.04 | 0.04 | 54 | 1008.8 |
| 20260904011544 | 64 | 255 | 0.9 | 4.3 | 0.00 | 0.04 | 0.04 | 53 | 1008.8 |
| 20260904010051 | 64 | 229 | 0.9 | 3.5 | 0.00 | 0.04 | 0.04 | 53 | 1008.9 |
| 20260904004556 | 64 | 244 | 0.0 | 4.3 | 0.00 | 0.04 | 0.04 | 53 | 1008.7 |
| 20260904003042 | 65 | 262 | 1.7 | 7.8 | 0.00 | 0.04 | 0.04 | 51 | 1008.7 |
| 20260904001540 | 66 | 182 | 1.7 | 7.0 | 0.00 | 0.04 | 0.04 | 50 | 1008.8 |
| 20260904000056 | 66 | 238 | 0.0 | 7.0 | 0.00 | 0.04 | 0.04 | 51 | 1008.6 |
| 20260903234543 | 66 | 127 | 0.9 | 5.2 | 0.00 | 0.06 | 0.04 | 50 | 1008.7 |
| 20260903233038 | 66 | 136 | 0.0 | 4.3 | 0.00 | 0.06 | 0.04 | 49 | 1008.6 |
| 20260903231538 | 65 | 141 | 1.7 | 6.1 | 0.00 | 0.06 | 0.04 | 50 | 1008.7 |
| 20260903230137 | 65 | 178 | 2.6 | 7.8 | 0.00 | 0.06 | 0.04 | 48 | 1008.7 |
| 20260903224538 | 65 | 202 | 1.7 | 4.3 | 0.00 | 0.16 | 0.04 | 50 | 1008.8 |
| 20260903223041 | 65 | 253 | 0.0 | 4.3 | 0.00 | 0.16 | 0.04 | 53 | 1008.9 |
| 20260903221534 | 64 | 199 | 1.7 | 6.1 | 0.00 | 0.16 | 0.04 | 52 | 1008.9 |
| 20260903220040 | 65 | 169 | 2.6 | 7.0 | 0.00 | 0.16 | 0.04 | 53 | 1008.9 |
| 20260903214535 | 65 | 182 | 1.7 | 5.2 | 0.00 | 0.20 | 0.04 | 53 | 1008.7 |
| 20260903213037 | 66 | 180 | 0.0 | 4.3 | 0.00 | 0.20 | 0.04 | 53 | 1008.7 |